Location: Newark
(13.8117°N, 3.6025°W)
Time: 18:47:22
(UTC+00:00)

Explorer 11/Cluster Stage 4 - Pass Details

Date: 28 August 2019
Orbit: 467 x 1259 km, 28.8° (Epoch: 17 October)

Event Time Altitude Azimuth Distance (km) Brightness Sun altitude
Rises 14:04:25 0° 299° (WNW) 4,198 10.6 63.1°
Reaches altitude 10° 14:07:25 10° 301° (WNW) 3,225 10.2 62.4°
Maximum altitude 14:15:38 71° 25° (NNE) 1,245 8.5 60.4°
Drops below altitude 10° 14:22:56 10° 108° (ESE) 2,880 9.3 58.6°
Sets 14:25:28 0° 111° (ESE) 3,729 9.8 58.0°
